DW1824 Weather Reports


Display with metric or nautical units.
time (UTC)temp
F
wind
direction
speed
MPH
gust
MPH
rain 1hr
in
rain 24hr
in
rain mn
in
humidity
%
barometer
mb
20190323164310 68 118 6.0 16.0 0.00 0.00 0.00 82 1021.3
20190323163804 67 133 9.0 14.0 0.00 0.00 0.00 83 1021.4
20190323163258 67 143 8.0 12.0 0.00 0.00 0.00 82 1021.5
20190323162810 67 133 6.0 11.0 0.00 0.00 0.00 82 1021.7
20190323162304 67 157 7.0 11.0 0.00 0.00 0.00 82 1021.8
20190323161758 67 104 6.0 11.0 0.00 0.00 0.00 82 1021.9
20190323161306 67 114 7.0 11.0 0.00 0.00 0.00 82 1021.8
20190323160800 67 139 6.0 10.0 0.00 0.00 0.00 82 1021.8
20190323160314 67 151 6.0 10.0 0.00 0.00 0.00 82 1021.8
20190323155803 67 145 5.0 10.0 0.00 0.00 0.00 82 1021.7
20190323155315 67 119 5.0 10.0 0.00 0.00 0.00 82 1021.7
20190323154812 67 93 4.0 10.0 0.00 0.00 0.00 82 1021.8
20190323154259 67 135 5.0 10.0 0.00 0.00 0.00 82 1021.8
20190323153813 67 108 4.0 9.0 0.00 0.00 0.00 83 1021.8
20190323153307 67 121 4.0 10.0 0.00 0.00 0.00 82 1021.8
20190323152815 67 108 5.0 10.0 0.00 0.00 0.00 83 1021.9
20190323152308 66 137 3.0 9.0 0.00 0.00 0.00 83 1021.8
20190323151804 66 124 4.0 10.0 0.00 0.00 0.00 82 1021.8
20190323151310 66 112 4.0 9.0 0.00 0.00 0.00 82 1021.8
20190323150808 66 147 4.0 9.0 0.00 0.00 0.00 82 1021.8
20190323150302 66 112 5.0 9.0 0.00 0.00 0.00 83 1021.7
20190323145812 66 120 4.0 8.0 0.00 0.00 0.00 83 1021.6
20190323145304 66 136 5.0 9.0 0.00 0.00 0.00 83 1021.4
20190323144758 66 128 4.0 9.0 0.00 0.00 0.00 83 1021.5
20190323144305 66 140 4.0 9.0 0.00 0.00 0.00 83 1021.4
20190323143759 66 154 3.0 7.0 0.00 0.00 0.00 84 1021.3
20190323143314 65 112 3.0 10.0 0.00 0.00 0.00 84 1021.2
20190323142803 65 109 4.0 10.0 0.00 0.00 0.00 85 1021.2
20190323142317 65 107 3.0 8.0 0.00 0.00 0.00 86 1021.1
20190323141811 65 129 2.0 8.0 0.00 0.00 0.00 86 1021.0
20190323141259 64 142 2.0 7.0 0.00 0.00 0.00 88 1020.8
20190323140812 64 122 2.0 7.0 0.00 0.00 0.00 88 1020.9
20190323140306 64 95 3.0 7.0 0.00 0.00 0.00 88 1020.8
20190323135818 63 114 3.0 6.0 0.00 0.00 0.00 88 1020.9
20190323135309 63 131 2.0 6.0 0.00 0.00 0.00 88 1020.9
20190323134807 63 120 2.0 6.0 0.00 0.00 0.00 89 1020.8
20190323134314 62 129 2.0 6.0 0.00 0.00 0.00 89 1020.7
20190323133808 62 126 3.0 6.0 0.00 0.00 0.00 89 1020.6
20190323133301 62 120 1.0 7.0 0.00 0.00 0.00 89 1020.5
20190323132809 62 116 4.0 9.0 0.00 0.00 0.00 89 1020.3
20190323132304 62 109 3.0 7.0 0.00 0.00 0.00 89 1020.2
20190323131818 62 124 4.0 11.0 0.00 0.00 0.00 89 1020.1
20190323131304 62 106 5.0 11.0 0.00 0.00 0.00 89 1020.1
20190323130802 61 117 5.0 9.0 0.00 0.00 0.00 90 1020.0
20190323130316 61 114 4.0 9.0 0.00 0.00 0.00 90 1020.1
20190323125806 61 126 3.0 5.0 0.00 0.00 0.00 90 1020.2
20190323125258 61 123 3.0 6.0 0.00 0.00 0.00 90 1020.2
20190323124811 61 144 3.0 7.0 0.00 0.00 0.00 90 1020.1
20190323124259 61 119 3.0 8.0 0.00 0.00 0.00 89 1020.2
20190323123813 61 122 4.0 8.0 0.00 0.00 0.00 90 1020.1
20190323123307 61 167 3.0 7.0 0.00 0.00 0.00 90 1020.0
20190323122812 61 143 3.0 8.0 0.00 0.00 0.00 90 1019.9
20190323122309 61 127 4.0 8.0 0.00 0.00 0.00 90 1019.6
20190323121803 60 143 3.0 9.0 0.00 0.00 0.00 91 1019.5
20190323121312 60 110 4.0 9.0 0.00 0.00 0.00 91 1019.6
20190323120806 60 151 3.0 7.0 0.00 0.00 0.00 91 1019.5
20190323120300 60 125 3.0 7.0 0.00 0.00 0.00 91 1019.3
20190323115810 59 118 3.0 9.0 0.00 0.00 0.00 91 1019.2
20190323115302 59 172 5.0 9.0 0.00 0.00 0.00 91 1019.1
20190323114800 59 112 4.0 8.0 0.00 0.00 0.00 91 1019.0
20190323114308 59 125 4.0 8.0 0.00 0.00 0.00 91 1019.0
20190323113801 59 116 4.0 8.0 0.00 0.00 0.00 91 1019.0
20190323113315 59 158 3.0 8.0 0.00 0.00 0.00 91 1018.9
20190323112803 59 128 3.0 5.0 0.00 0.00 0.00 91 1018.9
20190323112317 59 135 3.0 7.0 0.00 0.00 0.00 91 1018.7
20190323111811 59 116 4.0 7.0 0.00 0.00 0.00 92 1018.7
20190323111257 59 112 3.0 7.0 0.00 0.00 0.00 92 1018.6
20190323110812 59 126 3.0 7.0 0.00 0.00 0.00 92 1018.6
20190323110309 58 129 3.0 8.0 0.00 0.00 0.00 92 1018.5
20190323105819 58 143 3.0 8.0 0.00 0.00 0.00 92 1018.4
20190323105310 58 116 3.0 5.0 0.00 0.00 0.00 92 1018.4
20190323104804 58 159 3.0 6.0 0.00 0.00 0.00 92 1018.4
20190323104310 58 120 3.0 6.0 0.00 0.00 0.00 92 1018.4
20190323103804 58 148 3.0 7.0 0.00 0.00 0.00 92 1018.4
20190323103258 58 130 3.0 7.0 0.00 0.00 0.00 93 1018.3
20190323102806 58 150 3.0 7.0 0.00 0.00 0.00 93 1018.4
20190323102306 58 121 4.0 7.0 0.00 0.00 0.00 93 1018.4
20190323101758 58 111 2.0 4.0 0.00 0.00 0.00 93 1018.4
20190323101306 58 124 2.0 4.0 0.00 0.00 0.00 93 1018.5
20190323100800 58 126 3.0 4.0 0.00 0.00 0.00 93 1018.5
20190323100314 58 113 2.0 4.0 0.00 0.00 0.00 93 1018.5
20190323095802 58 137 1.0 6.0 0.00 0.00 0.00 93 1018.4
20190323095314 58 120 2.0 7.0 0.00 0.00 0.00 93 1018.3
20190323094807 58 122 3.0 7.0 0.00 0.00 0.00 93 1018.4
20190323094300 58 131 4.0 7.0 0.00 0.00 0.00 93 1018.4
20190323093814 58 162 2.0 3.0 0.00 0.00 0.00 93 1018.6
20190323093308 58 158 1.0 2.0 0.00 0.00 0.00 93 1018.5
20190323092815 58 162 1.0 3.0 0.00 0.00 0.00 93 1018.5
20190323092309 58 170 2.0 3.0 0.00 0.00 0.00 93 1018.5
20190323091802 58 118 2.0 3.0 0.00 0.00 0.00 93 1018.6
20190323091310 57 129 2.0 4.0 0.00 0.00 0.00 93 1018.6
20190323090804 57 139 3.0 4.0 0.00 0.00 0.00 93 1018.5
20190323090302 57 167 2.0 4.0 0.00 0.00 0.00 93 1018.6
20190323085813 57 158 1.0 3.0 0.00 0.00 0.00 93 1018.6
20190323085305 57 132 2.0 3.0 0.00 0.00 0.00 93 1018.6
20190323084817 58 116 2.0 3.0 0.00 0.00 0.00 93 1018.6
20190323084303 58 103 2.0 3.0 0.00 0.00 0.00 93 1018.7
20190323083816 58 153 1.0 4.0 0.00 0.00 0.00 93 1018.8
20190323083309 58 143 2.0 2.0 0.00 0.00 0.00 93 1018.8
20190323082816 58 147 1.0 3.0 0.00 0.00 0.00 92 1018.8
20190323082313 58 157 1.0 2.0 0.00 0.00 0.00 92 1018.9
20190323081806 58 110 1.0 2.0 0.00 0.00 0.00 92 1019.0
20190323081311 58 131 1.0 4.0 0.00 0.00 0.00 92 1019.0
20190323080804 58 126 2.0 4.0 0.00 0.00 0.00 92 1019.0
20190323080317 58 116 2.0 3.0 0.00 0.00 0.00 92 1018.9
20190323075807 58 164 2.0 3.0 0.00 0.00 0.00 92 1019.0
20190323075317 58 135 1.0 4.0 0.00 0.00 0.00 92 1019.1
20190323074809 58 131 2.0 3.0 0.00 0.00 0.00 92 1019.1
20190323074301 58 151 1.0 2.0 0.00 0.00 0.00 92 1019.1
20190323073813 58 133 2.0 2.0 0.00 0.00 0.00 92 1019.2
20190323073306 58 160 1.0 3.0 0.00 0.00 0.00 92 1019.3
20190323072813 58 120 2.0 3.0 0.00 0.00 0.00 91 1019.3
20190323072306 58 150 2.0 3.0 0.00 0.00 0.00 91 1019.3
20190323071759 58 129 2.0 4.0 0.00 0.00 0.00 91 1019.3
20190323071305 58 122 2.0 4.0 0.00 0.00 0.00 91 1019.3
20190323070759 58 137 2.0 4.0 0.00 0.00 0.00 91 1019.4
20190323070311 58 169 2.0 4.0 0.00 0.00 0.00 91 1019.4
20190323065806 58 172 2.0 4.0 0.00 0.00 0.00 91 1019.5
20190323065316 58 124 3.0 5.0 0.00 0.00 0.00 91 1019.5
20190323064809 58 167 2.0 3.0 0.00 0.00 0.00 90 1019.6
20190323064316 58 147 2.0 3.0 0.00 0.00 0.00 90 1019.6
20190323063809 58 158 2.0 3.0 0.00 0.00 0.00 90 1019.7
20190323063301 58 179 2.0 3.0 0.00 0.00 0.00 89 1019.7
20190323062808 58 163 2.0 3.0 0.00 0.00 0.00 89 1019.7
20190323062301 58 154 2.0 3.0 0.00 0.00 0.00 89 1019.7
20190323061758 58 172 2.0 3.0 0.00 0.00 0.00 88 1019.6
20190323061304 58 150 2.0 4.0 0.00 0.00 0.00 88 1019.6
20190323060817 58 179 2.0 4.0 0.00 0.00 0.00 87 1019.6
20190323060310 58 136 2.0 6.0 0.00 0.00 0.00 87 1019.7
20190323055818 58 173 2.0 6.0 0.00 0.00 0.00 86 1019.8
20190323055309 58 147 2.0 3.0 0.00 0.00 0.00 86 1019.7
20190323054801 58 129 2.0 4.0 0.00 0.00 0.00 85 1019.8
20190323054307 58 152 2.0 3.0 0.00 0.00 0.00 85 1019.8
20190323053804 58 157 2.0 4.0 0.00 0.00 0.00 84 1019.8
20190323053317 58 166 2.0 4.0 0.00 0.00 0.00 83 1019.7
20190323052805 58 164 2.0 3.0 0.00 0.00 0.00 83 1019.7
20190323052257 58 133 2.0 3.0 0.00 0.00 0.00 82 1019.8
20190323051811 59 131 2.0 3.0 0.00 0.00 0.00 82 1019.7
20190323051259 59 143 2.0 4.0 0.00 0.00 0.00 82 1019.7
20190323050812 59 125 2.0 4.0 0.00 0.00 0.00 81 1019.7
20190323050304 59 144 2.0 3.0 0.00 0.00 0.00 81 1019.8
20190323045813 59 158 2.0 3.0 0.00 0.00 0.00 81 1019.9
20190323045308 59 163 1.0 3.0 0.00 0.00 0.00 80 1020.0
20190323044801 59 166 2.0 3.0 0.00 0.00 0.00 79 1020.1
20190323044306 59 144 1.0 3.0 0.00 0.00 0.00 79 1020.1
20190323043759 59 149 1.0 3.0 0.00 0.00 0.00 78 1020.2
20190323043312 60 163 2.0 3.0 0.00 0.00 0.00 77 1020.2
20190323042758 60 177 2.0 5.0 0.00 0.00 0.00 76 1020.3
20190323042311 60 176 1.0 5.0 0.00 0.00 0.00 75 1020.3
20190323041804 60 176 2.0 5.0 0.00 0.00 0.00 74 1020.4
20190323041314 60 183 2.0 4.0 0.00 0.00 0.00 74 1020.3
20190323040807 60 162 1.0 2.0 0.00 0.00 0.00 73 1020.3
20190323040259 61 160 1.0 3.0 0.00 0.00 0.00 73 1020.2
20190323035809 61 178 1.0 3.0 0.00 0.00 0.00 72 1020.3
20190323035259 61 177 1.0 3.0 0.00 0.00 0.00 71 1020.3
20190323034812 61 166 1.0 3.0 0.00 0.00 0.00 71 1020.2
20190323034316 61 177 1.0 3.0 0.00 0.00 0.00 70 1020.3
20190323033312 62 177 2.0 3.0 0.00 0.00 0.00 69 1020.3
20190323032818 62 184 2.0 3.0 0.00 0.00 0.00 69 1020.2
20190323032311 62 166 1.0 3.0 0.00 0.00 0.00 68 1020.2
20190323031804 62 173 1.0 3.0 0.00 0.00 0.00 68 1020.2
20190323031313 62 172 2.0 4.0 0.00 0.00 0.00 66 1020.2
20190323030806 63 174 2.0 5.0 0.00 0.00 0.00 66 1020.1
20190323030317 63 177 3.0 5.0 0.00 0.00 0.00 65 1020.1
20190323025807 63 181 2.0 7.0 0.00 0.00 0.00 64 1020.0
20190323025317 63 156 3.0 7.0 0.00 0.00 0.00 63 1019.9
20190323024810 64 145 3.0 6.0 0.00 0.00 0.00 62 1019.8
20190323024317 64 144 3.0 5.0 0.00 0.00 0.00 60 1019.9
20190323023810 64 152 2.0 7.0 0.00 0.00 0.00 59 1019.8
20190323023307 64 156 3.0 7.0 0.00 0.00 0.00 57 1019.6
20190323022813 64 173 4.0 10.0 0.00 0.00 0.00 56 1019.5
20190323022303 64 149 4.0 10.0 0.00 0.00 0.00 55 1019.5
20190323021816 65 140 4.0 7.0 0.00 0.00 0.00 54 1019.5
20190323021307 65 170 3.0 8.0 0.00 0.00 0.00 53 1019.5
20190323020820 65 136 3.0 10.0 0.00 0.00 0.00 52 1019.5
20190323020312 65 147 4.0 10.0 0.00 0.00 0.00 52 1019.4
20190323015812 65 180 3.0 7.0 0.00 0.00 0.00 52 1019.3
20190323015320 65 174 4.0 9.0 0.00 0.00 0.00 51 1019.2
20190323014812 65 157 4.0 9.0 0.00 0.00 0.00 50 1019.2
20190323014300 66 180 3.0 8.0 0.00 0.00 0.00 50 1019.1
20190323013814 66 186 4.0 8.0 0.00 0.00 0.00 49 1018.9
20190323013306 66 147 4.0 8.0 0.00 0.00 0.00 49 1018.9
20190323012813 66 162 4.0 8.0 0.00 0.00 0.00 49 1018.8
20190323012306 66 154 3.0 7.0 0.00 0.00 0.00 49 1018.8
20190323011819 67 160 3.0 5.0 0.00 0.00 0.00 48 1018.8
20190323011305 67 169 3.0 5.0 0.00 0.00 0.00 48 1018.7
20190323010818 67 160 3.0 6.0 0.00 0.00 0.00 47 1018.7
20190323010314 68 164 3.0 5.0 0.00 0.00 0.00 47 1018.7
20190323005803 68 165 3.0 7.0 0.00 0.00 0.00 46 1018.7
20190323005313 69 171 4.0 12.0 0.00 0.00 0.00 45 1018.6
20190323004806 69 180 4.0 12.0 0.00 0.00 0.00 44 1018.6
20190323004312 69 128 4.0 10.0 0.00 0.00 0.00 44 1018.4
20190323003805 70 162 4.0 13.0 0.00 0.00 0.00 44 1018.4
20190323003318 70 175 6.0 13.0 0.00 0.00 0.00 43 1018.3
20190323002804 71 171 6.0 10.0 0.00 0.00 0.00 43 1018.1
20190323002301 71 152 5.0 9.0 0.00 0.00 0.00 43 1018.1
20190323001814 71 147 5.0 9.0 0.00 0.00 0.00 43 1018.1
20190323001301 72 152 5.0 9.0 0.00 0.00 0.00 42 1018.0
20190323000814 72 123 4.0 8.0 0.00 0.00 0.00 43 1017.9
20190323000307 73 164 4.0 10.0 0.00 0.00 0.00 42 1017.8
20190322235815 73 138 4.0 10.0 0.00 0.00 0.00 41 1017.8
20190322235306 73 161 5.0 13.0 0.00 0.00 0.00 40 1017.8
20190322234819 74 156 7.0 13.0 0.00 0.00 0.00 40 1017.7
20190322234306 74 162 7.0 12.0 0.00 0.00 0.00 39 1017.7
20190322233802 75 139 6.0 10.0 0.00 0.00 0.00 40 1017.7
20190322233315 76 162 6.0 12.0 0.00 0.00 0.00 40 1017.6
20190322232801 76 105 7.0 12.0 0.00 0.00 0.00 39 1017.5
20190322232314 76 154 5.0 10.0 0.00 0.00 0.00 38 1017.5
20190322231807 77 123 3.0 9.0 0.00 0.00 0.00 38 1017.5
20190322231312 77 149 5.0 13.0 0.00 0.00 0.00 37 1017.4
20190322230805 77 126 5.0 13.0 0.00 0.00 0.00 39 1017.4
20190322230319 77 156 5.0 11.0 0.00 0.00 0.00 37 1017.5
20190322225811 77 111 5.0 9.0 0.00 0.00 0.00 36 1017.5
20190322225302 77 157 4.0 9.0 0.00 0.00 0.00 37 1017.5
20190322224815 77 134 4.0 14.0 0.00 0.00 0.00 36 1017.6
20190322224301 77 87 8.0 14.0 0.00 0.00 0.00 37 1017.5
20190322223813 77 104 4.0 8.0 0.00 0.00 0.00 37 1017.6
20190322223306 77 135 4.0 8.0 0.00 0.00 0.00 37 1017.7
20190322222813 77 109 3.0 14.0 0.00 0.00 0.00 36 1017.8
20190322222306 78 131 8.0 14.0 0.00 0.00 0.00 35 1017.9
20190322221803 78 145 7.0 14.0 0.00 0.00 0.00 35 1017.9
20190322221309 78 127 6.0 14.0 0.00 0.00 0.00 35 1018.0
20190322220802 78 119 5.0 11.0 0.00 0.00 0.00 37 1018.0
20190322220314 78 126 5.0 13.0 0.00 0.00 0.00 36 1018.1
20190322215802 78 110 5.0 13.0 0.00 0.00 0.00 36 1018.1
20190322215313 78 114 6.0 12.0 0.00 0.00 0.00 34 1018.2
20190322214806 78 127 4.0 10.0 0.00 0.00 0.00 35 1018.2
20190322214313 78 111 5.0 10.0 0.00 0.00 0.00 35 1018.3
20190322213806 78 130 7.0 10.0 0.00 0.00 0.00 34 1018.3
20190322213303 78 120 5.0 9.0 0.00 0.00 0.00 34 1018.3
20190322212809 78 81 4.0 12.0 0.00 0.00 0.00 34 1018.4
20190322212301 78 104 4.0 12.0 0.00 0.00 0.00 36 1018.4
20190322211814 78 99 4.0 10.0 0.00 0.00 0.00 36 1018.5
20190322211300 77 127 2.0 11.0 0.00 0.00 0.00 35 1018.6
20190322210813 78 126 4.0 11.0 0.00 0.00 0.00 35 1018.7
20190322210305 78 143 4.0 11.0 0.00 0.00 0.00 35 1018.8
20190322205815 78 113 1.0 7.0 0.00 0.00 0.00 36 1018.9
20190322205310 77 106 1.0 11.0 0.00 0.00 0.00 36 1018.9
20190322204802 78 131 6.0 12.0 0.00 0.00 0.00 37 1018.8
20190322204309 78 106 6.0 12.0 0.00 0.00 0.00 37 1019.0
20190322203802 78 106 2.0 8.0 0.00 0.00 0.00 34 1019.1
20190322203315 77 108 3.0 9.0 0.00 0.00 0.00 34 1019.2
20190322202802 77 94 3.0 10.0 0.00 0.00 0.00 36 1019.3
20190322202314 77 120 4.0 10.0 0.00 0.00 0.00 36 1019.3
20190322201807 77 65 3.0 11.0 0.00 0.00 0.00 33 1019.5
20190322201314 77 83 5.0 12.0 0.00 0.00 0.00 35 1019.5
20190322200811 77 81 5.0 12.0 0.00 0.00 0.00 34 1019.7
20190322200304 77 126 3.0 11.0 0.00 0.00 0.00 33 1019.8
20190322195812 77 127 4.0 11.0 0.00 0.00 0.00 34 1020.0
20190322195303 77 137 3.0 9.0 0.00 0.00 0.00 36 1020.1
20190322194816 77 149 4.0 9.0 0.00 0.00 0.00 34 1020.2
20190322194301 77 135 3.0 7.0 0.00 0.00 0.00 38 1020.3
20190322193814 77 148 2.0 9.0 0.00 0.00 0.00 33 1020.4
20190322193306 77 134 4.0 9.0 0.00 0.00 0.00 34 1020.4
20190322192817 77 136 3.0 10.0 0.00 0.00 0.00 38 1020.6
20190322192310 77 143 7.0 10.0 0.00 0.00 0.00 34 1020.7
20190322191803 77 147 2.0 9.0 0.00 0.00 0.00 36 1020.7
20190322191309 77 124 4.0 9.0 0.00 0.00 0.00 35 1020.9
20190322190802 77 127 2.0 9.0 0.00 0.00 0.00 40 1020.9
20190322190315 77 116 3.0 9.0 0.00 0.00 0.00 36 1020.9
20190322185804 77 127 4.0 9.0 0.00 0.00 0.00 34 1021.1
20190322185314 77 95 2.0 6.0 0.00 0.00 0.00 37 1021.1
20190322184811 77 95 2.0 11.0 0.00 0.00 0.00 38 1021.3
20190322184317 76 198 2.0 10.0 0.00 0.00 0.00 38 1021.4
20190322183810 76 173 6.0 10.0 0.00 0.00 0.00 34 1021.4
20190322183304 76 159 3.0 13.0 0.00 0.00 0.00 38 1021.5
20190322182808 76 76 6.0 13.0 0.00 0.00 0.00 36 1021.5
20190322182301 76 186 3.0 10.0 0.00 0.00 0.00 41 1021.6
20190322181814 76 200 4.0 10.0 0.00 0.00 0.00 37 1021.8
20190322181301 75 145 3.0 8.0 0.00 0.00 0.00 40 1021.9
20190322180814 75 139 5.0 9.0 0.00 0.00 0.00 40 1021.9
20190322180311 75 173 4.0 9.0 0.00 0.00 0.00 37 1022.0
20190322175820 76 157 5.0 10.0 0.00 0.00 0.00 39 1022.1
20190322175310 76 106 3.0 11.0 0.00 0.00 0.00 38 1022.2
20190322174804 76 114 6.0 11.0 0.00 0.00 0.00 37 1022.3
20190322174309 76 149 4.0 10.0 0.00 0.00 0.00 40 1022.3
20190322173802 75 164 4.0 10.0 0.00 0.00 0.00 41 1022.4
20190322173315 75 191 5.0 11.0 0.00 0.00 0.00 39 1022.6
20190322172801 75 174 6.0 11.0 0.00 0.00 0.00 40 1022.5
20190322172318 74 171 3.0 9.0 0.00 0.00 0.00 40 1022.7
20190322171810 74 181 5.0 9.0 0.00 0.00 0.00 40 1022.8
20190322171316 74 189 4.0 10.0 0.00 0.00 0.00 42 1022.9
20190322170809 74 207 5.0 10.0 0.00 0.00 0.00 45 1022.9
20190322170302 74 195 4.0 7.0 0.00 0.00 0.00 44 1023.0
20190322165812 74 156 3.0 7.0 0.00 0.00 0.00 44 1023.0
20190322165303 74 87 2.0 5.0 0.00 0.00 0.00 43 1023.1
20190322164816 74 120 2.0 7.0 0.00 0.00 0.00 44 1023.1